NWS1006 UMKK-ULLI

Flight info

Callsign NWS1006
Flight time N/A
Altitude 37000
Route PELUG3N PELUG DCT KEDUX DCT PIVAX DCT PINIX DCT PIRUX DCT PISIM DCT PIDIN DCT ARANS/K0848F370 DCT PISIS DCT AKARU AKARU1A
Aircraft A333/H-SDE3GHIJ2J3J5M1RVWXY/LB2D1

Departure

Time 2026-05-08 19:25
Airport Khrabrovo Airport (UMKK)

Arrival

Time N/A
Airport Pulkovo Airport (ULLI)
Time Latitude Longitude Altitude Speed Heading
2026-05-08 19:05 54.88514 20.58548 43 ft 0 kts 156°
2026-05-08 19:19 54.88512 20.58548 43 ft 1 kts 156°
2026-05-08 19:20 54.88486 20.58618 43 ft 12 kts 92°
2026-05-08 19:20 54.88491 20.58675 43 ft 16 kts 72°
2026-05-08 19:20 54.88602 20.58778 43 ft 17 kts 341°
2026-05-08 19:20 54.88752 20.58665 42 ft 23 kts 335°
2026-05-08 19:21 54.88870 20.58730 41 ft 24 kts 67°
2026-05-08 19:21 54.88957 20.59063 41 ft 36 kts 66°
2026-05-08 19:21 54.89076 20.59534 39 ft 48 kts 67°
2026-05-08 19:21 54.89223 20.60095 36 ft 51 kts 66°
2026-05-08 19:22 54.89366 20.60649 33 ft 49 kts 65°
2026-05-08 19:22 54.89500 20.61167 31 ft 22 kts 65°
2026-05-08 19:22 54.89563 20.61409 30 ft 21 kts 66°
2026-05-08 19:22 54.89622 20.61647 30 ft 21 kts 68°
2026-05-08 19:23 54.89680 20.61871 31 ft 18 kts 63°
2026-05-08 19:23 54.89698 20.62079 31 ft 17 kts 95°
2026-05-08 19:23 54.89738 20.62230 31 ft 9 kts 14°
2026-05-08 19:23 54.89758 20.62158 31 ft 6 kts 248°
2026-05-08 19:24 54.89758 20.62156 31 ft 0 kts 248°
2026-05-08 19:24 54.89756 20.62148 31 ft 6 kts 248°
2026-05-08 19:24 54.89621 20.61628 30 ft 95 kts 246°
2026-05-08 19:24 54.89229 20.60115 87 ft 173 kts 246°
2026-05-08 19:25 54.88681 20.57999 754 ft 206 kts 246°
2026-05-08 19:25 54.88192 20.55636 1921 ft 226 kts 265°
2026-05-08 19:25 54.88440 20.53002 3132 ft 219 kts 302°
2026-05-08 19:25 54.89410 20.51166 3937 ft 207 kts 340°
2026-05-08 19:26 54.90752 20.50688 4730 ft 195 kts
2026-05-08 19:26 54.92094 20.50332 5502 ft 202 kts 351°
2026-05-08 19:26 54.93434 20.49533 6269 ft 206 kts 346°
2026-05-08 19:26 54.94743 20.48595 7018 ft 209 kts 343°
2026-05-08 19:27 54.96072 20.47567 7762 ft 211 kts 342°
2026-05-08 19:27 54.97407 20.46503 8515 ft 213 kts 342°
2026-05-08 19:27 54.98745 20.45425 9249 ft 215 kts 342°
2026-05-08 19:27 55.00092 20.44332 9970 ft 217 kts 342°
2026-05-08 19:28 55.01463 20.43222 10663 ft 220 kts 341°
2026-05-08 19:28 55.02868 20.42082 11339 ft 224 kts 340°
2026-05-08 19:28 55.04285 20.40928 12018 ft 227 kts 339°
2026-05-08 19:28 55.05714 20.39764 12689 ft 230 kts 339°
2026-05-08 19:29 55.07178 20.38570 13336 ft 234 kts 338°
2026-05-08 19:29 55.08643 20.37373 13958 ft 238 kts 338°
2026-05-08 19:29 55.10141 20.36149 14611 ft 240 kts 337°
2026-05-08 19:29 55.11653 20.34912 15256 ft 242 kts 336°
2026-05-08 19:30 55.13190 20.33654 15868 ft 246 kts 336°
2026-05-08 19:30 55.14745 20.32381 16472 ft 250 kts 337°
2026-05-08 19:30 55.16352 20.31239 17065 ft 253 kts 341°
2026-05-08 19:30 55.17995 20.30121 17609 ft 258 kts 340°
2026-05-08 19:31 55.19666 20.28976 18155 ft 263 kts 340°
2026-05-08 19:31 55.21399 20.27788 18880 ft 271 kts 340°
2026-05-08 19:31 55.23127 20.26600 19750 ft 274 kts 340°
2026-05-08 19:31 55.24907 20.25376 20314 ft 277 kts 340°
2026-05-08 19:32 55.26712 20.24135 20754 ft 285 kts 340°
2026-05-08 19:32 55.28572 20.22855 21290 ft 289 kts 340°
2026-05-08 19:32 55.30447 20.21562 21803 ft 293 kts 340°
2026-05-08 19:32 55.32349 20.20251 22311 ft 297 kts 340°
2026-05-08 19:33 55.34269 20.18926 22813 ft 301 kts 340°
2026-05-08 19:33 55.36224 20.17575 23288 ft 306 kts 340°
2026-05-08 19:33 55.38206 20.16203 23739 ft 311 kts 340°
2026-05-08 19:33 55.40250 20.14788 24228 ft 315 kts 340°
2026-05-08 19:34 55.42276 20.13383 24655 ft 321 kts 340°
2026-05-08 19:34 55.44361 20.11935 25106 ft 326 kts 340°
2026-05-08 19:34 55.46505 20.10444 25551 ft 331 kts 340°
2026-05-08 19:34 55.48644 20.08956 25979 ft 337 kts 340°
2026-05-08 19:35 55.50822 20.07438 26447 ft 341 kts 340°
2026-05-08 19:35 55.53062 20.05874 26867 ft 347 kts 340°
2026-05-08 19:35 55.55309 20.04305 27312 ft 352 kts 340°
2026-05-08 19:35 55.57619 20.02689 27738 ft 357 kts 340°
2026-05-08 19:36 55.59924 20.01074 28166 ft 362 kts 340°
2026-05-08 19:36 55.62288 19.99416 28583 ft 368 kts 340°
2026-05-08 19:36 55.64679 19.97738 28999 ft 373 kts 340°
2026-05-08 19:36 55.67088 19.96044 29399 ft 379 kts 340°
2026-05-08 19:37 55.69550 19.94312 29824 ft 384 kts 340°
2026-05-08 19:37 55.72050 19.92550 30284 ft 388 kts 340°
2026-05-08 19:37 55.74558 19.90779 30640 ft 394 kts 340°
2026-05-08 19:37 55.77140 19.88954 30994 ft 400 kts 340°
2026-05-08 19:38 55.79727 19.87123 31395 ft 403 kts 340°
2026-05-08 19:38 55.82344 19.85269 31862 ft 405 kts 339°
2026-05-08 19:38 55.84956 19.83415 32187 ft 410 kts 339°
2026-05-08 19:38 55.87596 19.81535 32586 ft 412 kts 339°
2026-05-08 19:39 55.90254 19.79644 32987 ft 415 kts 339°
2026-05-08 19:39 55.92956 19.77716 33368 ft 417 kts 339°
2026-05-08 19:39 55.95628 19.75807 33718 ft 420 kts 339°
2026-05-08 19:39 55.98366 19.73850 34068 ft 424 kts 338°
2026-05-08 19:40 56.01082 19.71903 34380 ft 427 kts 338°
2026-05-08 19:40 56.03839 19.69926 34691 ft 429 kts 338°
2026-05-08 19:40 56.06609 19.67934 34968 ft 432 kts 338°
2026-05-08 19:40 56.09397 19.65927 35250 ft 433 kts 338°
2026-05-08 19:41 56.12222 19.63890 35522 ft 435 kts 338°
2026-05-08 19:41 56.15008 19.61877 35774 ft 437 kts 338°
2026-05-08 19:41 56.17843 19.59828 36040 ft 438 kts 338°
2026-05-08 19:41 56.20765 19.58296 36283 ft 439 kts 353°
2026-05-08 19:42 56.23769 19.58328 36561 ft 438 kts 10°
2026-05-08 19:42 56.26717 19.59598 36839 ft 437 kts 15°
2026-05-08 19:42 56.29679 19.60907 37088 ft 437 kts 14°
2026-05-08 19:42 56.32643 19.62193 37247 ft 441 kts 14°
2026-05-08 19:43 56.35659 19.63493 37240 ft 450 kts 14°
2026-05-08 19:43 56.41845 19.66160 37257 ft 467 kts 14°
2026-05-08 19:44 56.48249 19.68930 37257 ft 481 kts 14°
2026-05-08 19:44 56.54819 19.71781 37260 ft 492 kts 14°
2026-05-08 19:45 56.61533 19.74703 37270 ft 500 kts 14°
2026-05-08 19:45 56.68292 19.77658 37266 ft 497 kts 14°
2026-05-08 19:46 56.74954 19.80581 37265 ft 492 kts 14°
2026-05-08 19:46 56.84952 19.84988 37278 ft 494 kts 14°
2026-05-08 19:47 56.91640 19.87948 37277 ft 495 kts 14°
2026-05-08 19:47 56.98377 19.90941 37282 ft 503 kts 14°
2026-05-08 19:48 57.01775 19.92588 37172 ft 502 kts 17°
2026-05-08 19:48 57.05096 19.94421 37333 ft 502 kts 17°
2026-05-08 19:48 57.11889 19.98122 37285 ft 508 kts 17°
2026-05-08 19:49 57.18673 20.01826 37291 ft 511 kts 17°
2026-05-08 19:49 57.25511 20.05574 37286 ft 513 kts 17°
2026-05-08 19:50 57.32394 20.09362 37293 ft 514 kts 17°
2026-05-08 19:50 57.39235 20.13141 37296 ft 515 kts 17°
2026-05-08 19:51 57.46081 20.16938 37304 ft 515 kts 16°
2026-05-08 19:51 57.52893 20.20730 37296 ft 512 kts 16°
2026-05-08 19:52 57.59692 20.24529 37314 ft 513 kts 16°
2026-05-08 19:52 57.66484 20.28341 37315 ft 512 kts 16°
2026-05-08 19:53 57.73332 20.32199 37319 ft 512 kts 16°
2026-05-08 19:53 57.80143 20.36051 37321 ft 512 kts 16°
2026-05-08 19:54 57.86934 20.39906 37320 ft 513 kts 16°
2026-05-08 19:54 57.93782 20.43811 37324 ft 513 kts 16°
2026-05-08 19:55 58.00571 20.47695 37318 ft 512 kts 16°
2026-05-08 19:55 58.07391 20.51614 37323 ft 514 kts 16°
2026-05-08 19:56 58.14234 20.55562 37326 ft 513 kts 16°
2026-05-08 19:56 58.20997 20.59478 37323 ft 513 kts 16°
2026-05-08 19:57 58.27847 20.63462 37330 ft 514 kts 16°
2026-05-08 19:57 58.34627 20.67503 37333 ft 513 kts 20°
2026-05-08 19:58 58.41329 20.72131 37330 ft 513 kts 20°
2026-05-08 19:58 58.48034 20.76744 37336 ft 513 kts 20°
2026-05-08 19:59 58.54742 20.81374 37342 ft 513 kts 19°
2026-05-08 19:59 58.61467 20.86032 37345 ft 513 kts 19°
2026-05-08 20:00 58.68154 20.90684 37349 ft 514 kts 19°
2026-05-08 20:00 58.74882 20.95384 37349 ft 513 kts 19°
2026-05-08 20:01 58.81584 21.00086 37358 ft 514 kts 19°
2026-05-08 20:01 58.88244 21.04776 37360 ft 514 kts 19°
2026-05-08 20:02 58.94973 21.09535 37363 ft 514 kts 19°
2026-05-08 20:02 59.01588 21.14507 37342 ft 513 kts 27°
2026-05-08 20:03 59.04500 21.18535 37359 ft 513 kts 43°
2026-05-08 20:03 59.06812 21.23771 37368 ft 512 kts 57°
2026-05-08 20:03 59.10033 21.35955 37362 ft 513 kts 64°
2026-05-08 20:04 59.13247 21.48422 37359 ft 512 kts 64°
2026-05-08 20:04 59.16447 21.60874 37354 ft 513 kts 64°
2026-05-08 20:05 59.19629 21.73325 37364 ft 512 kts 65°
2026-05-08 20:05 59.22773 21.85697 37366 ft 513 kts 65°
2026-05-08 20:06 59.25945 21.98249 37355 ft 513 kts 65°
2026-05-08 20:06 59.29084 22.10731 37360 ft 514 kts 65°
2026-05-08 20:07 59.32211 22.23244 37362 ft 513 kts 65°
2026-05-08 20:07 59.35325 22.35779 37360 ft 513 kts 65°
2026-05-08 20:08 59.38434 22.48362 37361 ft 514 kts 65°
2026-05-08 20:08 59.41543 22.61017 37363 ft 514 kts 64°
2026-05-08 20:09 59.44616 22.73599 37362 ft 513 kts 65°
2026-05-08 20:09 59.47686 22.86242 37366 ft 515 kts 65°
2026-05-08 20:10 59.50695 22.98704 37362 ft 514 kts 65°
2026-05-08 20:10 59.53773 23.11526 37361 ft 514 kts 65°
2026-05-08 20:11 59.56289 23.24669 37373 ft 514 kts 73°
2026-05-08 20:11 59.58447 23.38106 37362 ft 515 kts 73°
2026-05-08 20:12 59.60551 23.51333 37375 ft 514 kts 73°
2026-05-08 20:12 59.62678 23.64805 37376 ft 514 kts 73°
2026-05-08 20:13 59.64787 23.78261 37374 ft 515 kts 74°
2026-05-08 20:13 59.66890 23.91797 37381 ft 515 kts 73°
2026-05-08 20:14 59.68971 24.05285 37379 ft 516 kts 73°
2026-05-08 20:14 59.71057 24.18920 37381 ft 516 kts 73°
2026-05-08 20:15 59.73116 24.32487 37382 ft 516 kts 73°
2026-05-08 20:15 59.75152 24.46077 37380 ft 516 kts 75°
2026-05-08 20:16 59.76916 24.59887 37380 ft 517 kts 76°
2026-05-08 20:16 59.78685 24.73797 37375 ft 517 kts 77°
2026-05-08 20:17 59.80455 24.87834 37376 ft 517 kts 76°
2026-05-08 20:17 59.82182 25.01659 37378 ft 517 kts 76°
2026-05-08 20:18 59.83894 25.15496 37381 ft 518 kts 76°
2026-05-08 20:18 59.85614 25.29532 37381 ft 518 kts 76°
2026-05-08 20:19 59.87300 25.43425 37382 ft 519 kts 76°
2026-05-08 20:19 59.88996 25.57531 37374 ft 520 kts 76°
2026-05-08 20:20 59.90623 25.71191 37374 ft 519 kts 77°
2026-05-08 20:20 59.92285 25.85309 37369 ft 520 kts 77°
2026-05-08 20:21 59.93931 25.99420 37359 ft 520 kts 77°
2026-05-08 20:21 59.95547 26.13415 37369 ft 519 kts 77°
2026-05-08 20:22 59.97146 26.27403 37377 ft 520 kts 77°
2026-05-08 20:22 59.98481 26.39202 37379 ft 520 kts 77°
2026-05-08 20:23 60.00321 26.55632 37381 ft 521 kts 76°
2026-05-08 20:23 60.01828 26.69227 37380 ft 521 kts 77°
2026-05-08 20:24 60.03390 26.83477 37378 ft 521 kts 77°
2026-05-08 20:24 60.04920 26.97589 37334 ft 509 kts 77°
2026-05-08 20:25 60.05560 27.04519 36968 ft 498 kts 80°
2026-05-08 20:25 60.06155 27.11291 36345 ft 497 kts 79°
2026-05-08 20:25 60.06757 27.18136 35742 ft 494 kts 79°
2026-05-08 20:25 60.07346 27.24852 35190 ft 490 kts 79°
2026-05-08 20:26 60.07921 27.31466 34528 ft 486 kts 79°
2026-05-08 20:26 60.08495 27.38091 33846 ft 482 kts 79°
2026-05-08 20:26 60.09065 27.44723 33178 ft 478 kts 79°
2026-05-08 20:26 60.09624 27.51265 32526 ft 475 kts 79°
2026-05-08 20:27 60.10172 27.57708 31883 ft 471 kts 79°
2026-05-08 20:27 60.10722 27.64220 31235 ft 468 kts 79°
2026-05-08 20:27 60.10901 27.66344 31022 ft 467 kts 79°